Regional Weather Roundup
Issued by NWS

Home | Current Version | Previous Version | Graphics & Text | Print | Product List | Glossary On
Versions: 1 2 3 4 5 6 7 8 9 10 11 12 13 14 15 16 17 18 19 20 21 22 23 24 25 26 27 28 29 30 31 32 33 34 35 36 37 38 39 40 41 42 43 44 45 46 47 48 49 50
000
ASUS45 KBOU 260007
RWRCO

WEATHER ROUNDUP FOR COLORADO
NATIONAL WEATHER SERVICE DENVER/BOULDER CO
500 PM MST THU DEC 25 2014

NOTE: "FAIR" INDICATES FEW OR NO CLOUDS BELOW 12000 FEET WITH NO
SIGNIFICANT WEATHER AND/OR OBSTRUCTIONS TO VISIBILITY.

COZ001>005-013-030-031-260100-
...NORTHWEST COLORADO...

CITY           SKY/WX    TMP DP  RH WIND       PRES   REMARKS
CRAIG          LGT SNOW  25  23  92 CALM      29.55S FOG
HAYDEN         MOCLDY    27  21  80 W3        29.54R
MEEKER         CLOUDY    30  23  75 VRB5      29.52R WCI  25
MOUNT WERNER   NOT AVBL
STEAMBOAT SPGS CLOUDY    28  26  90 CALM      29.52R
WALDEN         CLOUDY    21  18  86 NE16      29.53R VSB 1   WCI   7
$$

COZ006>008-011-260100-
...WEST CENTRAL VALLEYS...

CITY           SKY/WX    TMP DP  RH WIND       PRES   REMARKS
GRAND JUNCTION CLOUDY    28  27  96 N12       29.59R WCI  18
MONTROSE       FLURRIES  33  26  75 W16G25    29.57R WCI  23
EAGLE          PTCLDY    34  21  60 SW13G18   29.55R WCI  25
RIFLE          CLOUDY    30  27  88 SW5       29.54R WCI  25
DELTA          CLOUDY    38  27  62 S5        29.57R
NUCLA          CLOUDY    32  27  80 CALM      29.61R
$$

COZ017>023-064>068-260100-
...SOUTHWEST COLORADO...

CITY           SKY/WX    TMP DP  RH WIND       PRES   REMARKS
DURANGO        CLOUDY    32  21  64 W13G20    29.60S WCI  22
CORTEZ         CLOUDY    34  21  59 SW8       29.60R WCI  27
PAGOSA SPRINGS LGT SNOW  29  28  96 S5        29.60S WCI  24
TELLURIDE      MOCLDY    24  11  57 S5        29.55R WCI  18
WOLF CREEK PAS CLOUDY    10  10 100 MISG      29.52S
$$

COZ009-010-012-014-032>034-037-058>063-260100-
...CENTRAL COLORADO...

CITY           SKY/WX    TMP DP  RH WIND       PRES   REMARKS
ASPEN          MOCLDY    25  18  74 CALM      29.51R
BUENA VISTA    PTCLDY    28  15  56 E9        29.53R WCI  20
COPPER MTN     PTCLDY    19   9  63 S10       29.52R WCI   8
BERTHOUD PASS  HVY SNOW  10   5  79 MISG      29.53S VSB<1/4
COTTONWOOD PAS CLOUDY    30   5  34 CALM      29.53R
GUNNISON       PTCLDY    16  10  79 CALM      29.57F
KREMMLING      CLOUDY    28  23  80 E9        29.53R WCI  20
LEADVILLE      PTCLDY    17   6  62 S7        29.50R WCI   8
MONARCH PASS   PTCLDY    12   9  85 MISG      29.62R
SALIDA         PTCLDY    33  13  44 SW6       29.61R WCI  28
SUNLIGHT       LGT SNOW  19  16  86 MISG      29.53R
WILKERSON PASS PTCLDY    19  10  68 SW3       29.57S
$$

COZ069>075-260100-
...SAN LUIS VALLEY/SANGRE DE CRISTO MOUNTAINS...

CITY           SKY/WX    TMP DP  RH WIND       PRES   REMARKS
ALAMOSA        LGT SNOW  31  22  69 S9        29.59R WCI  23
LA VETA PASS   NOT AVBL
SAGUACHE       PTCLDY    16  10  79 NW5       29.57S WCI   9
$$

COZ035-036-038>040-260100-
...NORTHERN COLORADO FRONT RANGE...

CITY           SKY/WX    TMP DP  RH WIND       PRES   REMARKS
DENVER INTL AP SNOW      27  25  92 N22       29.63R VSB 1/2 WCI  13
DMNS CITY PARK   N/A     27  26  97 N9G25     29.65R WCI  18
AURORA         FLURRIES  29  29  99 N15G22    29.63R WCI  18
FRONT RANGE AP NOT AVBL
ERIE MUNI ARPT LGT SNOW  28  28  97 N14       29.67R VSB 1   WCI  17
BOULDER MUN AP LGT SNOW  28  28 100 N16G23    29.68R VSB 1   WCI  17
CENTENNIAL     LGT SNOW  31  29  92 NE13      29.60R FOG     WCI  21
BROOMFIELD     LGT SNOW  28  27  93 N12G22    29.65  VSB 1   WCI  18
FORT COLLINS   CLOUDY    27  25  93 N15       29.72R VSB 3/4 WCI  15
LONGMONT       LGT SNOW  30  28  92 NE8       29.70R WCI  23
$$

COZ041-046-047-076>085-087-088-260100-
...PIKES PEAK/PALMER DIVIDE AND SOUTHERN FOOTHILLS...

CITY           SKY/WX    TMP DP  RH WIND       PRES   REMARKS
COLO. SPRINGS  PTCLDY    32  24  72 N8        29.57R WCI  25
A. F. ACADEMY  PTCLDY    30  24  78 N8        29.57R WCI  22
ELLICOTT       NOT AVBL
FALCON         PTCLDY    30  25  82 NE12      29.57R WCI  20
FORT CARSON    CLEAR     34  25  68 NE10      29.56R WCI  26
LIMON          CLOUDY    31  26  82 N17       29.60R WCI  19
MONUMENT HILL  CLOUDY    28  27  93 NE13G18   29.57R WCI  18
TRINIDAD       CLEAR     41  22  46 SW14      29.57R
$$

COZ042>045-048>051-090-091-260100-
...NORTHEAST COLORADO...

CITY           SKY/WX    TMP DP  RH WIND       PRES   REMARKS
GREELEY ARPT   CLOUDY    27  21  80 NE13      29.70R VSB 1   WCI  16
AKRON          CLOUDY    28  27  96 N23       29.62R WCI  14
BURLINGTON     CLEAR     34  27  75 N16       29.58R WCI  24
WRAY           CLOUDY    34  28  81 N22G28    29.62R WCI  22
STERLING       LGT SNOW  32  30  93 NE15G23   29.68R WCI  22
HOLYOKE        CLOUDY    34  30  86 NE23      29.66R WCI  22
FORT MORGAN    LGT SNOW  28  26  93 NE20      29.67R WCI  14
$$

COZ086-089-092>099-260100-
...SOUTHEAST COLORADO...

CITY           SKY/WX    TMP DP  RH WIND       PRES   REMARKS
PUEBLO         CLEAR     43  23  45 N20       29.53R
LA JUNTA       CLEAR     51  15  23 W22       29.52R
LAMAR          CLEAR     48  24  39 SW5       29.50R
SPRINGFIELD      N/A     48  21  34 SW12      29.56R
$$



USA.gov is the U.S. government's official web portal to all federal, state and local government web resources and services.